This is the latest recevied weather packets stored in our database for station/object MB7UUE. If no packets are shown the sender has not sent any weather packets the latest 10 day(s).
| Time | Temp. | Humidity | Pressure | Rain* | Wind** | Luminosity | Snow |
|---|---|---|---|---|---|---|---|
| 1787379780 | 12.78° C | 76% | 1021.2 hPa | 0 mm | - | - | - |
| 1787378639 | 12.22° C | 78% | 1021 hPa | 0 mm | - | - | - |
| 1787377490 | 12.22° C | 79% | 1020.8 hPa | 0 mm | - | - | - |
| 1787376421 | 12.22° C | 79% | 1020.7 hPa | 0 mm | - | - | - |
| 1787376349 | 12.22° C | 79% | 1020.7 hPa | 0 mm | - | - | - |
| 1787375280 | 12.22° C | 79% | 1020.5 hPa | 0 mm | - | - | - |
| 1787375210 | 12.22° C | 79% | 1020.5 hPa | 0 mm | - | - | - |
| 1787374141 | 11.67° C | 80% | 1020.2 hPa | 0 mm | - | - | - |
| 1787374069 | 11.67° C | 80% | 1020.2 hPa | 0 mm | - | - | - |
| 1787373001 | 11.67° C | 80% | 1020 hPa | 0 mm | - | - | - |
| 1787372929 | 11.67° C | 80% | 1020 hPa | 0 mm | - | - | - |
| 1787371861 | 12.22° C | 79% | 1019.8 hPa | 0 mm | - | - | - |
| 1787371789 | 12.22° C | 79% | 1019.7 hPa | 0 mm | - | - | - |
| 1787370721 | 12.22° C | 78% | 1019.6 hPa | 0 mm | - | - | - |
| 1787370649 | 12.22° C | 78% | 1019.6 hPa | 0 mm | - | - | - |
| 1787369580 | 12.78° C | 76% | 1019.5 hPa | 0 mm | - | - | - |
| 1787369510 | 12.78° C | 76% | 1019.5 hPa | 0 mm | - | - | - |
| 1787368440 | 12.78° C | 76% | 1019.3 hPa | 0 mm | - | - | - |
| 1787368370 | 12.78° C | 75% | 1019.3 hPa | 0 mm | - | - | - |
| 1787367301 | 13.33° C | 75% | 1019.1 hPa | 0 mm | - | - | - |
| 1787367229 | 13.33° C | 75% | 1019.1 hPa | 0 mm | - | - | - |
| 1787366160 | 13.33° C | 75% | 1019 hPa | 0 mm | - | - | - |
| 1787366090 | 13.33° C | 75% | 1019 hPa | 0 mm | - | - | - |
| 1787365021 | 13.33° C | 75% | 1019 hPa | 0 mm | - | - | - |
| 1787364949 | 13.89° C | 75% | 1018.9 hPa | 0 mm | - | - | - |
* Rain latest hour (hover to see other rain measurements)
** Current wind speed in m/s (hover to see current wind gust speed)